Location: *
(34.8620°S, 39.3380°E)
Time: 02:00:41
(UTC+00:00)

Cosmos 1300 - Pass Details

Date: 07 December 2021
Orbit: 509 x 511 km, 82.5° (Epoch: 22 January)

Event Time Altitude Azimuth Distance (km) Brightness Sun altitude
Exits shadow 22:27:37 13° 216° (SW) 1,565 5.5 -29.9°
Drops below altitude 10° 22:28:18 10° 208° (SSW) 1,758 5.9 -29.8°
Sets 22:30:54 0° 190° (S) 2,655 7.2 -29.6°
